EN

Hourly Weather Topor

Today, 13 April, Tuesday

Time Temperature Precipitation Wind Pressure Humidity
00:00 +3°C° 0 mm 6 mps 755 mmHg 85%
01:00 +2°C° 0 mm 6 mps 755 mmHg 84%
02:00 +2°C° 0 mm 6 mps 755 mmHg 84%
03:00 +2°C° 0 mm 6 mps 756 mmHg 83%
04:00 +2°C° 0 mm 6 mps 756 mmHg 83%
05:00 +1°C° 0.4 mm 6 mps 756 mmHg 87%
06:00 +1°C° 0.4 mm 6 mps 756 mmHg 91%
07:00 -1°C° 0.4 mm 6 mps 757 mmHg 95%
08:00 -1°C° 1.1 mm 6 mps 757 mmHg 95%
09:00 -1°C° 1.1 mm 6 mps 757 mmHg 96%
10:00 -1°C° 1.1 mm 6 mps 757 mmHg 96%
11:00 -1°C° 0.8 mm 6 mps 757 mmHg 95%
12:00 +1°C° 0.8 mm 5 mps 758 mmHg 93%
13:00 +1°C° 0.8 mm 5 mps 758 mmHg 92%
14:00 +2°C° 0.1 mm 5 mps 757 mmHg 90%
15:00 +3°C° 0.1 mm 4 mps 757 mmHg 88%
16:00 +4°C° 0.1 mm 4 mps 757 mmHg 87%
17:00 +4°C° 0 mm 3 mps 757 mmHg 87%
18:00 +3°C° 0 mm 3 mps 757 mmHg 86%
19:00 +4°C° 0 mm 2 mps 757 mmHg 86%
20:00 +3°C° 0 mm 3 mps 757 mmHg 84%
21:00 +2°C° 0 mm 3 mps 757 mmHg 82%
22:00 +1°C° 0 mm 4 mps 756 mmHg 79%
23:00 +2°C° 0.1 mm 3 mps 756 mmHg 81%

Tomorrow, 14 April, Wednesday

Time Temperature Precipitation Wind Pressure Humidity
00:00 +1°C° 0.1 mm 3 mps 756 mmHg 82%
01:00 +1°C° 0.1 mm 3 mps 756 mmHg 84%
02:00 +1°C° 0 mm 3 mps 756 mmHg 84%
03:00 +1°C° 0 mm 3 mps 756 mmHg 83%
04:00 +1°C° 0 mm 3 mps 756 mmHg 83%
05:00 0°C° 0 mm 4 mps 756 mmHg 82%
06:00 +1°C° 0 mm 4 mps 756 mmHg 81%
07:00 +1°C° 0 mm 4 mps 756 mmHg 80%
08:00 +2°C° 0 mm 5 mps 756 mmHg 76%
09:00 +2°C° 0 mm 5 mps 755 mmHg 72%
10:00 +3°C° 0 mm 6 mps 755 mmHg 68%
11:00 +3°C° 0.1 mm 6 mps 755 mmHg 70%
12:00 +3°C° 0.1 mm 6 mps 755 mmHg 72%
13:00 +3°C° 0.1 mm 6 mps 755 mmHg 74%
14:00 +3°C° 0.3 mm 6 mps 755 mmHg 79%
15:00 +2°C° 0.3 mm 5 mps 755 mmHg 85%
16:00 +2°C° 0.3 mm 5 mps 754 mmHg 90%
17:00 +2°C° 0.4 mm 5 mps 754 mmHg 92%
18:00 +1°C° 0.4 mm 5 mps 755 mmHg 94%
19:00 +1°C° 0.4 mm 5 mps 755 mmHg 96%
20:00 +1°C° 0.4 mm 5 mps 754 mmHg 96%
21:00 +1°C° 0.4 mm 6 mps 754 mmHg 96%
22:00 +1°C° 0.4 mm 6 mps 754 mmHg 97%
23:00 +1°C° 0.5 mm 6 mps 754 mmHg 97%

Day after tomorrow, 15 April, Thursday

Time Temperature Precipitation Wind Pressure Humidity
00:00 +1°C° 0.5 mm 6 mps 753 mmHg 97%
01:00 +1°C° 0.5 mm 6 mps 753 mmHg 97%
02:00 +1°C° 0.7 mm 6 mps 753 mmHg 97%
03:00 -1°C° 0.7 mm 6 mps 753 mmHg 97%
04:00 -1°C° 0.7 mm 6 mps 753 mmHg 97%
05:00 0°C° 0.7 mm 5 mps 753 mmHg 97%
06:00 0°C° 0.7 mm 5 mps 753 mmHg 97%
07:00 0°C° 0.7 mm 5 mps 753 mmHg 97%
08:00 0°C° 0.5 mm 5 mps 753 mmHg 97%
09:00 0°C° 0.5 mm 4 mps 753 mmHg 97%
10:00 0°C° 0.5 mm 4 mps 753 mmHg 97%
11:00 +1°C° 0.2 mm 4 mps 753 mmHg 97%
12:00 +1°C° 0.2 mm 4 mps 753 mmHg 96%
13:00 +3°C° 0.2 mm 4 mps 753 mmHg 96%
14:00 +3°C° 0 mm 4 mps 753 mmHg 96%
15:00 +3°C° 0 mm 4 mps 753 mmHg 96%
16:00 +4°C° 0 mm 4 mps 753 mmHg 96%
17:00 +4°C° 0 mm 4 mps 753 mmHg 96%
18:00 +4°C° 0 mm 4 mps 753 mmHg 96%
19:00 +3°C° 0 mm 5 mps 753 mmHg 96%
20:00 +3°C° 0 mm 5 mps 753 mmHg 95%
21:00 +3°C° 0 mm 5 mps 753 mmHg 95%
22:00 +4°C° 0 mm 4 mps 753 mmHg 95%
23:00 +4°C° 0 mm 4 mps 753 mmHg 95%

16 April, Friday

Time Temperature Precipitation Wind Pressure Humidity
00:00 +4°C° 0 mm 4 mps 753 mmHg 94%
01:00 +4°C° 0 mm 4 mps 753 mmHg 94%
02:00 +3°C° 0 mm 4 mps 752 mmHg 95%
03:00 +3°C° 0 mm 4 mps 752 mmHg 95%
04:00 +3°C° 0 mm 4 mps 752 mmHg 95%
05:00 +3°C° 0 mm 4 mps 752 mmHg 95%
06:00 +4°C° 0 mm 4 mps 752 mmHg 95%
07:00 +4°C° 0 mm 4 mps 753 mmHg 95%
08:00 +5°C° 0 mm 4 mps 753 mmHg 93%
09:00 +5°C° 0 mm 5 mps 753 mmHg 92%
10:00 +6°C° 0 mm 5 mps 753 mmHg 90%
11:00 +6°C° 0 mm 5 mps 753 mmHg 90%
12:00 +7°C° 0 mm 5 mps 753 mmHg 90%
13:00 +7°C° 0 mm 5 mps 753 mmHg 90%
14:00 +7°C° 0 mm 5 mps 753 mmHg 90%
15:00 +7°C° 0 mm 4 mps 753 mmHg 91%
16:00 +6°C° 0 mm 4 mps 753 mmHg 92%
17:00 +6°C° 0.1 mm 4 mps 754 mmHg 93%
18:00 +6°C° 0.1 mm 4 mps 754 mmHg 94%
19:00 +6°C° 0.1 mm 4 mps 754 mmHg 95%
20:00 +6°C° 0 mm 4 mps 754 mmHg 95%
21:00 +6°C° 0 mm 4 mps 754 mmHg 96%
22:00 +6°C° 0 mm 4 mps 754 mmHg 96%
23:00 +6°C° 0.1 mm 4 mps 754 mmHg 96%

17 April, Saturday

Time Temperature Precipitation Wind Pressure Humidity
00:00 +6°C° 0.1 mm 4 mps 754 mmHg 96%
01:00 +6°C° 0.1 mm 4 mps 754 mmHg 97%
02:00 +7°C° 0.2 mm 4 mps 754 mmHg 97%
03:00 +7°C° 0.2 mm 4 mps 754 mmHg 96%
04:00 +7°C° 0.2 mm 4 mps 754 mmHg 96%
05:00 +7°C° 0.1 mm 4 mps 755 mmHg 93%
06:00 +7°C° 0.1 mm 4 mps 755 mmHg 91%
07:00 +7°C° 0.1 mm 4 mps 756 mmHg 88%
08:00 +10°C° 0 mm 4 mps 756 mmHg 78%
09:00 +11°C° 0 mm 3 mps 756 mmHg 68%
10:00 +12°C° 0 mm 3 mps 756 mmHg 57%
11:00 +12°C° 0 mm 3 mps 756 mmHg 55%
12:00 +13°C° 0 mm 3 mps 756 mmHg 52%
13:00 +14°C° 0 mm 4 mps 756 mmHg 49%
14:00 +13°C° 0.2 mm 4 mps 756 mmHg 57%
15:00 +12°C° 0.2 mm 4 mps 756 mmHg 64%
16:00 +11°C° 0.2 mm 3 mps 756 mmHg 72%
17:00 +10°C° 0.8 mm 3 mps 756 mmHg 79%
18:00 +9°C° 0.8 mm 2 mps 756 mmHg 86%
19:00 +8°C° 0.8 mm 2 mps 756 mmHg 94%
20:00 +8°C° 1.1 mm 2 mps 756 mmHg 94%
21:00 +8°C° 1.1 mm 2 mps 756 mmHg 95%
22:00 +9°C° 1.1 mm 3 mps 756 mmHg 96%
23:00 +9°C° 0.9 mm 3 mps 756 mmHg 94%

18 April, Sunday

Time Temperature Precipitation Wind Pressure Humidity
00:00 +8°C° 0.9 mm 4 mps 755 mmHg 93%
01:00 +8°C° 0.9 mm 5 mps 755 mmHg 92%
02:00 +8°C° 0.3 mm 5 mps 755 mmHg 92%
03:00 +7°C° 0.3 mm 5 mps 755 mmHg 92%
04:00 +7°C° 0.3 mm 6 mps 756 mmHg 92%
05:00 +7°C° 0.1 mm 5 mps 756 mmHg 90%
06:00 +7°C° 0.1 mm 5 mps 757 mmHg 89%
07:00 +7°C° 0.1 mm 4 mps 757 mmHg 87%
08:00 +8°C° 0.2 mm 5 mps 757 mmHg 82%
09:00 +9°C° 0.2 mm 5 mps 758 mmHg 77%
10:00 +10°C° 0.2 mm 6 mps 758 mmHg 73%
11:00 +10°C° 0.2 mm 6 mps 758 mmHg 68%
12:00 +11°C° 0.2 mm 6 mps 758 mmHg 64%
13:00 +13°C° 0.2 mm 6 mps 758 mmHg 60%
14:00 +12°C° 0 mm 5 mps 758 mmHg 61%
15:00 +12°C° 0 mm 5 mps 758 mmHg 63%
16:00 +12°C° 0 mm 5 mps 758 mmHg 64%
17:00 +11°C° 0 mm 4 mps 758 mmHg 69%
18:00 +10°C° 0 mm 4 mps 758 mmHg 73%
19:00 +9°C° 0 mm 3 mps 758 mmHg 77%
20:00 +9°C° 0 mm 3 mps 758 mmHg 79%
21:00 +9°C° 0 mm 3 mps 758 mmHg 80%
22:00 +8°C° 0 mm 3 mps 759 mmHg 82%
23:00 +8°C° 0 mm 3 mps 759 mmHg 84%
Show more

We Need Your Consent

Meteoprog and our Service Providers may store and access personal data such as cookies, device identifiers or other similar technologies on your device and process such data to personalise content and ads, as well as provide social media features and to analyse the traffic.

  • Store and/or access information on your device

    Cookies, device identifiers or other information can be stored or accessed on your device for the purposes indicated above.

  • Personalised ads and content, ad and content measurement, audience insights, and products development

    Ads and content can be personalised based on a profile. More data can be added to better personalise ads and content. Ad and content performance can be measured. Insights about the audience who saw the ads and content can be derived. Such data can be used to develop or improve user’s experience, systems and software.

By clicking ‘I Agree’ you will allow the use of indicated cookies, device identifiers, web beacons or other similar technologies. Your settings can be changed in the browser on your device.

For certain purposes, legitimate interests may be relied on, rather than consent. You can read more about this in our Privacy and Cookie Policy.